Temp
78 80 73 73 75 76 78 77 77 76 76 77 77 77 77 77 76 76 76 77 77 77 78 78 78 78 78 77 77 76 76 76 76 76 76 77 77 77 76 75 74 80 77
79 76 71 71 74 75 77 77 76 76 76 77 77 77 77 77 77 77 76 77 77 77 78 78 78 78 77 77 76 76 76 75 75 74 75 75 76 76 76 75 74 80 77
78 75 74 68 72 74 76 76 76 76 76 77 77 77 77 77 77 77 77 76 77 78 79 78 78 77 76 76 75 75 75 74 74 73 74 80 79 76 76 75 74 76 76
79 77 71 68 70 72 74 76 76 76 76 76 77 77 77 77 77 77 76 76 76 77 78 78 78 77 76 75 75 75 74 74 73 72 78 84 83 76 77 76 75 76 75
77 77 71 68 69 70 71 73 75 75 76 77 76 77 77 77 76 76 76 75 76 77 78 78 78 76 75 75 75 74 74 73 72 73 82 84 82 78 77 76 75 74 74
76 76 72 68 68 68 68 70 71 75 75 76 76 76 77 76 75 76 75 76 76 75 77 78 77 76 75 74 74 74 73 72 70 80 84 79 77 77 76 75 74 73 73
75 74 73 67 67 67 68 67 68 71 74 75 75 76 75 76 75 75 75 75 75 75 76 77 76 75 74 74 74 73 72 71 77 82 83 79 76 75 75 75 74 74 74
74 73 72 67 65 66 66 66 66 67 69 71 74 75 75 75 75 75 75 75 75 75 75 75 75 74 73 73 73 72 70 68 74 84 81 76 73 74 75 74 74 74 74
73 71 70 70 67 64 64 65 64 65 65 67 68 70 72 73 74 74 74 74 75 75 74 74 74 73 73 72 72 70 68 67 79 84 77 76 71 75 75 74 73 73 73
70 69 67 67 66 65 62 63 62 63 64 64 65 66 64 66 68 68 68 71 74 74 73 73 72 72 72 72 70 68 66 66 75 82 75 75 72 75 74 73 73 73 73
66 65 65 65 64 64 63 64 61 63 63 64 64 63 65 74 76 74 70 68 72 72 73 72 72 71 70 68 67 65 64 76 74 80 75 68 72 75 75 74 73 73 72
59 61 64 64 63 63 64 61 60 63 66 65 67 69 67 70 73 73 67 64 66 67 70 71 70 68 67 75 72 65 73 77 75 75 77 69 72 74 75 74 73 73 73
57 59 61 61 62 62 62 61 59 62 65 67 67 67 69 69 70 71 71 69 68 63 68 69 69 72 73 76 75 73 74 76 76 74 69 68 72 75 75 74 73 73 72
54 57 58 60 59 60 62 60 60 59 62 65 68 69 68 70 68 68 69 70 68 67 67 67 69 74 74 75 76 74 74 75 76 75 67 65 69 73 75 74 73 73 72
51 53 55 57 57 59 59 61 59 59 60 64 67 69 69 69 70 69 66 67 65 66 64 64 64 67 71 72 73 71 72 73 74 73 72 62 65 70 74 74 74 73 73
50 50 53 54 56 58 58 59 60 59 62 61 63 67 68 68 69 70 69 66 65 65 65 65 64 64 67 71 72 71 70 72 72 73 75 69 64 66 70 73 74 74 74
48 49 50 52 55 56 57 58 60 62 63 59 62 64 66 67 69 70 70 68 68 67 67 67 66 65 64 66 69 71 70 70 69 71 72 73 69 61 65 69 71 72 72
47 47 48 51 51 53 56 58 59 63 62 62 58 62 63 66 67 67 68 69 69 68 67 66 65 64 64 64 64 65 67 68 69 70 71 70 71 69 65 64 68 70 71
45 44 44 46 47 49 51 53 58 60 64 63 63 64 62 66 66 66 66 68 68 69 67 65 64 65 63 62 62 61 56 54 56 58 58 58 58 59 58 59 59 62 68
43 43 42 44 45 48 48 50 55 60 62 65 66 64 62 62 65 67 66 67 68 67 64 63 64 65 64 63 58 51 49 49 49 49 49 50 49 48 48 48 51 54 63
41 41 40 40 42 45 46 44 46 49 62 63 63 65 65 65 64 65 67 66 68 66 65 64 62 62 61 56 50 47 45 45 44 45 44 44 43 43 42 42 42 46 49
36 39 39 39 40 43 45 44 44 46 50 58 64 63 65 65 64 64 65 65 66 66 66 64 63 61 61 57 54 52 45 44 41 40 41 40 38 40 38 38 38 38 40
34 35 37 37 38 40 43 44 44 48 53 56 60 62 64 62 60 59 60 61 65 66 64 65 64 63 59 58 60 56 49 49 39 39 36 37 36 36 36 36 35 35 35
34 36 36 36 35 38 39 41 41 41 44 54 58 59 58 57 54 52 53 55 58 63 65 64 64 63 61 58 58 60 57 49 43 35 35 33 34 33 32 32 32 32 32
34 34 35 35 35 36 36 39 39 40 45 48 51 53 53 51 48 46 46 48 50 55 62 64 63 62 61 60 59 57 52 51 48 41 32 30 30 30 30 31 31 30 30
33 33 34 33 33 34 35 37 36 38 40 44 47 47 46 45 43 41 42 42 43 43 43 44 48 52 50 54 55 53 51 49 47 42 36 32 29 26 27 29 28 28 28
MSLP
1009.47 1009.35 1009.73 1009.51 1008.92 1008.63 1008.54 1008.54 1008.85 1008.94 1009.11 1009.20 1009.47 1009.57 1009.86 1009.93 1010.09 1010.33 1010.36 1010.63 1011.03 1011.18 1011.48 1011.74 1011.93 1012.28 1012.57 1012.81 1013.04 1013.18 1013.47 1013.98 1014.33 1014.65 1014.89 1015.03 1015.23 1015.38 1015.55 1015.69 1015.77 1015.62 1016.07
1010.07 1010.17 1010.10 1009.91 1009.25 1008.69 1008.45 1008.48 1008.73 1008.96 1009.18 1009.18 1009.36 1009.59 1009.71 1010.12 1010.14 1010.50 1010.62 1010.72 1011.01 1011.41 1011.56 1011.82 1012.15 1012.48 1012.86 1013.18 1013.33 1013.58 1013.76 1013.95 1014.29 1014.72 1015.03 1015.30 1015.46 1015.62 1015.78 1015.88 1015.72 1015.64 1016.09
1010.37 1010.58 1010.31 1010.37 1009.67 1009.05 1008.44 1008.43 1008.50 1008.83 1009.02 1009.20 1009.34 1009.47 1009.80 1009.98 1010.19 1010.46 1010.77 1010.98 1011.14 1011.33 1011.63 1012.03 1012.28 1012.60 1013.02 1013.42 1013.70 1013.91 1014.12 1014.33 1014.51 1014.68 1014.92 1014.90 1015.31 1015.73 1015.92 1016.05 1016.07 1015.91 1016.05
1010.77 1010.82 1010.97 1010.75 1010.05 1009.44 1008.83 1008.36 1008.33 1008.58 1008.83 1009.10 1009.26 1009.55 1009.64 1009.93 1010.17 1010.40 1010.80 1010.96 1011.33 1011.52 1011.81 1012.08 1012.46 1012.89 1013.24 1013.53 1013.84 1014.13 1014.43 1014.63 1014.81 1014.98 1014.79 1014.20 1014.58 1015.57 1015.80 1016.03 1016.20 1016.23 1016.27
1011.15 1011.06 1011.31 1011.14 1010.62 1010.07 1009.53 1009.12 1008.64 1008.59 1008.69 1008.87 1009.23 1009.47 1009.52 1009.89 1010.14 1010.34 1010.69 1011.04 1011.31 1011.62 1011.88 1012.17 1012.57 1012.98 1013.49 1013.62 1013.92 1014.19 1014.56 1014.79 1015.07 1015.15 1014.38 1014.01 1014.35 1015.22 1015.55 1016.01 1016.46 1016.59 1016.61
1011.60 1011.44 1011.59 1011.65 1011.19 1010.82 1010.38 1009.85 1009.33 1008.90 1008.90 1008.92 1009.15 1009.30 1009.51 1009.80 1009.96 1010.10 1010.54 1010.86 1011.31 1011.65 1011.83 1012.11 1012.54 1013.07 1013.50 1013.74 1014.01 1014.21 1014.60 1014.88 1015.12 1014.87 1014.24 1014.50 1014.81 1015.48 1015.80 1016.18 1016.60 1016.83 1016.99
1011.81 1011.89 1011.79 1012.01 1011.76 1011.30 1010.90 1010.47 1009.94 1009.38 1009.00 1009.06 1009.11 1009.09 1009.38 1009.47 1009.90 1010.03 1010.31 1010.74 1011.08 1011.53 1011.88 1012.11 1012.52 1013.02 1013.53 1013.77 1014.04 1014.39 1014.68 1014.99 1014.89 1014.26 1014.17 1014.74 1015.27 1015.87 1016.19 1016.51 1016.76 1016.97 1017.22
1011.97 1012.09 1012.03 1012.06 1012.01 1011.80 1011.38 1010.98 1010.73 1010.08 1009.53 1009.20 1009.02 1009.04 1009.08 1009.25 1009.58 1009.87 1010.15 1010.43 1010.80 1011.31 1011.79 1012.16 1012.55 1013.01 1013.49 1013.89 1014.16 1014.46 1014.86 1015.06 1014.86 1013.80 1014.09 1014.88 1015.68 1016.03 1016.40 1016.83 1017.06 1017.35 1017.64
1012.42 1012.47 1012.47 1012.37 1012.20 1012.04 1011.66 1011.25 1011.11 1010.79 1010.01 1009.65 1009.40 1009.14 1009.11 1009.20 1009.40 1009.60 1009.82 1010.22 1010.56 1011.01 1011.54 1012.03 1012.52 1012.92 1013.41 1013.81 1014.21 1014.57 1014.85 1015.00 1014.35 1013.64 1014.64 1015.29 1015.93 1016.15 1016.57 1016.97 1017.24 1017.58 1017.98
1013.10 1013.07 1013.02 1012.73 1012.51 1012.31 1012.12 1011.50 1011.22 1010.98 1010.65 1010.11 1009.72 1009.39 1009.29 1009.33 1009.39 1009.54 1009.76 1009.95 1010.21 1010.65 1011.07 1011.71 1012.29 1012.79 1013.28 1013.63 1014.12 1014.54 1014.80 1014.94 1014.51 1013.86 1014.92 1015.49 1016.09 1016.24 1016.72 1017.09 1017.29 1017.58 1018.01
1013.56 1013.58 1013.41 1013.02 1012.87 1012.60 1012.22 1011.69 1011.37 1010.92 1010.66 1010.42 1009.81 1009.47 1009.21 1008.99 1008.97 1009.18 1009.40 1009.81 1010.01 1010.26 1010.73 1011.36 1011.97 1012.58 1013.17 1013.60 1014.07 1014.54 1014.78 1014.71 1014.42 1013.87 1014.99 1015.88 1016.16 1016.31 1016.74 1017.21 1017.56 1017.66 1017.99
1014.02 1013.97 1013.63 1013.36 1013.10 1012.73 1012.37 1011.98 1011.69 1010.93 1010.64 1010.44 1009.99 1009.46 1009.35 1009.11 1008.92 1009.01 1009.14 1009.55 1009.83 1010.17 1010.71 1011.31 1011.87 1012.50 1013.04 1013.25 1013.94 1014.60 1014.60 1014.29 1014.38 1014.42 1014.44 1015.61 1016.26 1016.46 1016.77 1017.27 1017.56 1017.80 1017.93
1014.68 1014.21 1013.93 1013.77 1013.34 1012.90 1012.39 1012.26 1011.77 1011.29 1010.70 1010.34 1010.14 1009.83 1009.44 1009.15 1008.88 1008.96 1009.17 1009.50 1009.95 1010.28 1010.70 1011.22 1011.58 1012.16 1012.44 1012.70 1013.25 1013.95 1014.15 1014.15 1014.17 1014.39 1015.23 1015.43 1016.11 1016.47 1016.75 1017.23 1017.50 1017.69 1017.90
1015.13 1014.69 1014.28 1013.92 1013.65 1013.12 1012.48 1012.07 1011.78 1011.38 1010.95 1010.26 1009.89 1009.62 1009.38 1009.06 1009.03 1009.11 1009.15 1009.29 1009.65 1010.21 1010.70 1010.14 1011.27 1011.78 1012.17 1012.46 1012.63 1013.42 1013.71 1013.92 1014.12 1014.29 1015.05 1015.45 1016.11 1016.42 1016.53 1016.98 1017.37 1017.71 1017.94
1015.53 1015.11 1014.59 1014.16 1013.71 1013.19 1012.58 1011.87 1011.57 1011.18 1010.83 1010.38 1009.99 1009.62 1009.13 1009.28 1009.16 1009.22 1009.17 1009.40 1009.51 1010.28 1010.40 1011.02 1011.50 1012.21 1012.36 1012.52 1012.63 1012.96 1013.47 1013.82 1014.22 1014.61 1014.82 1015.35 1016.04 1016.45 1016.45 1016.75 1017.17 1017.48 1017.83
1015.87 1015.59 1014.94 1014.33 1013.80 1013.11 1012.60 1012.01 1011.28 1011.02 1010.50 1010.21 1009.86 1009.49 1009.18 1009.06 1009.05 1009.17 1009.28 1009.49 1009.38 1010.10 1010.56 1011.03 1011.12 1012.01 1012.63 1012.39 1012.49 1012.78 1013.38 1013.66 1014.17 1014.49 1014.56 1015.27 1015.80 1016.23 1016.53 1016.65 1016.89 1017.12 1017.44
1015.90 1015.51 1015.06 1014.43 1013.71 1013.10 1012.47 1011.93 1011.14 1010.25 1009.98 1010.16 1009.84 1009.47 1009.14 1009.28 1009.06 1009.16 1009.15 1009.34 1009.14 1009.43 1010.44 1011.14 1011.21 1011.58 1012.05 1012.60 1012.63 1012.84 1013.06 1013.63 1013.96 1014.22 1014.52 1014.91 1015.58 1016.27 1016.65 1016.71 1016.79 1017.03 1017.25
1016.25 1015.77 1015.27 1014.68 1013.98 1013.17 1012.21 1011.63 1010.86 1009.75 1009.52 1009.58 1009.75 1009.41 1009.38 1008.90 1009.25 1009.19 1009.02 1009.19 1009.04 1009.45 1009.88 1010.41 1011.08 1011.73 1011.49 1011.89 1012.55 1013.08 1013.33 1013.69 1013.88 1014.15 1014.34 1014.78 1015.24 1016.03 1016.77 1016.70 1016.53 1016.70 1016.97
1016.64 1016.17 1015.66 1015.01 1014.26 1013.38 1012.73 1012.00 1010.87 1009.84 1009.01 1009.05 1009.05 1009.06 1009.60 1008.70 1008.88 1008.95 1009.00 1009.12 1008.76 1009.09 1009.49 1009.98 1010.52 1011.17 1011.70 1012.32 1012.52 1013.54 1014.32 1014.88 1015.61 1015.69 1016.15 1016.39 1016.74 1017.14 1017.55 1017.54 1016.94 1016.83 1016.89
1016.96 1016.35 1015.91 1015.13 1014.41 1013.39 1012.77 1012.08 1010.77 1009.42 1008.85 1008.70 1008.67 1008.74 1009.04 1008.95 1008.93 1009.29 1009.29 1008.86 1008.49 1008.44 1008.81 1009.49 1009.99 1010.67 1011.47 1012.19 1013.26 1014.20 1015.06 1015.71 1016.69 1016.73 1017.17 1017.40 1017.93 1018.36 1018.85 1018.60 1018.18 1018.11 1017.62
1017.03 1016.28 1015.78 1015.14 1014.48 1013.51 1012.87 1012.53 1011.37 1009.97 1008.36 1008.09 1008.41 1008.24 1008.60 1008.58 1008.84 1009.10 1008.02 1008.43 1008.42 1008.41 1008.42 1009.21 1010.02 1010.41 1011.18 1012.35 1013.71 1015.33 1015.61 1016.54 1017.10 1017.90 1017.63 1018.06 1018.42 1019.07 1019.67 1019.71 1019.66 1019.43 1019.64
1017.29 1016.37 1015.88 1015.24 1014.71 1013.78 1013.08 1012.89 1012.33 1011.31 1010.25 1008.81 1008.09 1008.37 1008.30 1008.45 1008.87 1008.44 1008.36 1008.23 1008.12 1008.46 1008.34 1008.52 1009.50 1009.86 1010.60 1011.68 1012.45 1014.04 1015.96 1017.77 1018.08 1018.99 1018.78 1018.31 1019.35 1019.78 1019.87 1020.65 1020.49 1020.67 1020.92
1017.40 1016.76 1015.85 1015.32 1014.70 1013.88 1013.22 1012.60 1012.05 1011.01 1009.89 1009.05 1008.49 1008.04 1008.08 1008.48 1009.14 1008.92 1008.76 1008.64 1008.63 1008.16 1007.90 1008.09 1008.99 1009.29 1010.04 1011.03 1011.08 1012.08 1014.20 1015.29 1018.07 1019.93 1020.09 1019.68 1019.95 1020.61 1021.44 1021.06 1021.30 1021.80 1021.26
1017.28 1016.63 1015.85 1015.30 1014.87 1014.04 1013.49 1012.60 1012.07 1011.35 1010.33 1009.01 1008.45 1008.32 1008.69 1009.38 1009.52 1009.95 1009.94 1009.45 1008.98 1008.22 1007.76 1007.94 1008.44 1009.10 1009.64 1009.89 1010.81 1011.07 1012.07 1013.78 1016.12 1019.32 1020.53 1021.26 1021.36 1021.07 1022.06 1021.93 1021.96 1022.19 1022.55
1017.19 1016.51 1015.78 1015.21 1014.75 1014.34 1013.61 1012.66 1012.15 1011.57 1010.99 1010.07 1009.45 1009.10 1009.22 1009.96 1010.38 1010.42 1009.89 1009.79 1008.97 1008.95 1007.83 1007.72 1008.30 1008.78 1009.10 1009.46 1010.27 1011.20 1012.43 1013.52 1014.62 1016.36 1019.31 1021.63 1021.95 1022.30 1022.34 1022.49 1022.65 1022.91 1022.92
1017.16 1016.46 1015.83 1015.33 1014.81 1014.37 1013.64 1012.75 1012.38 1012.19 1011.70 1010.78 1010.16 1009.69 1009.88 1010.27 1010.40 1010.54 1010.71 1010.38 1010.21 1009.61 1009.25 1008.97 1008.94 1009.12 1009.39 1009.61 1010.28 1011.01 1011.81 1013.04 1014.19 1014.81 1017.85 1020.26 1021.48 1023.36 1023.13 1023.81 1023.44 1023.17 1023.29
Wind_Speed
15 17 21 22 17 13 10 12 10 11 13 14 14 13 14 14 13 12 12 12 12 15 16 17 18 17 16 14 13 13 13 12 10 9 9 10 10 10 10 9 8 9 11
14 16 17 24 21 16 11 11 12 11 13 14 14 14 15 15 15 14 12 13 14 14 16 17 16 15 14 13 14 13 13 12 11 10 9 8 8 10 10 9 11 10 12
15 15 16 23 23 20 11 11 12 12 13 15 15 15 16 15 15 15 13 12 13 14 16 16 16 15 12 12 11 12 11 11 11 11 11 10 10 10 10 9 5 10 11
14 13 16 22 22 21 20 12 13 15 14 15 15 16 16 16 16 16 15 14 13 15 16 15 15 13 12 12 12 12 11 10 10 10 10 10 11 12 12 11 9 14 16
14 14 14 22 23 23 20 18 12 13 15 14 16 16 16 17 17 17 16 15 15 16 16 16 15 14 13 13 13 12 11 10 9 9 11 8 9 11 12 15 15 14 13
13 14 14 20 22 21 21 17 19 12 12 13 15 17 17 17 18 18 17 16 15 15 16 16 15 14 13 12 13 13 11 10 9 11 9 6 5 13 15 16 13 12 13
12 12 13 18 21 22 19 19 16 15 9 12 13 15 18 18 17 17 18 17 16 16 15 15 17 15 13 12 13 11 10 10 12 12 9 9 6 14 16 16 14 13 13
13 11 11 12 16 19 19 18 17 15 14 11 10 13 15 18 19 17 18 19 17 16 16 15 16 16 14 11 10 9 8 9 14 11 7 6 12 16 16 14 14 13 12
14 13 12 13 13 16 17 16 16 15 15 14 12 8 7 12 18 21 19 19 19 18 17 16 16 16 15 13 11 10 10 10 13 7 7 6 12 16 15 14 13 13 12
13 13 13 13 13 13 13 14 14 12 13 14 12 9 6 4 7 10 13 18 21 20 19 17 16 15 15 13 11 11 9 11 12 8 5 6 12 15 15 14 14 14 13
11 13 14 13 13 13 10 10 12 11 8 10 8 8 7 6 9 11 10 12 19 20 19 17 17 15 12 10 11 10 9 8 9 4 5 14 12 14 14 14 13 13 14
16 16 13 14 14 13 11 8 10 8 6 5 7 5 3 5 7 6 6 11 13 12 12 16 15 12 11 8 7 9 7 10 7 3 4 15 12 12 13 13 13 13 13
17 14 15 15 14 13 10 8 5 5 4 4 5 5 6 3 3 5 4 2 5 10 7 10 10 8 10 8 8 9 10 9 4 3 9 14 12 13 13 14 14 14 14
17 18 16 15 15 14 9 7 7 5 6 4 4 3 4 3 1 3 3 4 4 3 6 8 8 9 9 10 10 10 12 9 4 3 8 13 10 12 13 14 15 14 13
16 18 18 16 15 14 13 9 7 7 6 6 4 4 1 3 4 2 2 3 3 5 6 4 3 4 7 9 7 9 10 8 8 4 5 12 10 7 11 13 14 14 14
17 17 18 18 16 15 13 14 9 7 7 5 5 4 4 3 3 4 2 5 6 6 5 8 12 9 8 8 9 8 9 8 9 8 5 8 13 9 8 12 15 15 15
16 17 17 17 16 15 16 13 11 9 6 5 4 5 4 4 5 4 4 3 6 8 10 8 8 8 8 5 8 9 7 7 7 7 5 4 9 6 2 7 9 14 15
17 17 18 16 17 17 15 12 10 10 6 6 4 4 6 3 5 5 4 5 6 7 9 9 8 8 7 9 6 5 6 4 7 9 7 5 4 5 6 7 8 7 13
16 16 16 16 16 14 12 12 13 13 8 4 5 4 6 4 5 6 5 6 5 6 8 8 8 8 6 6 8 5 5 6 8 9 12 11 11 9 6 14 17 7 6
16 14 14 12 15 12 10 10 11 9 7 8 6 5 7 5 6 8 6 7 6 5 5 7 10 9 8 6 5 7 7 6 6 6 7 8 9 11 9 10 9 11 12
16 14 13 13 13 10 7 8 8 11 6 6 5 5 7 5 5 9 4 6 7 6 8 8 8 9 6 9 7 6 8 8 9 5 6 5 9 9 10 9 7 7 8
15 14 12 12 12 11 6 6 5 7 10 10 2 4 6 5 6 5 6 6 7 7 10 10 11 6 6 11 4 5 4 2 7 7 5 8 9 6 9 9 9 11 9
14 13 13 12 12 10 9 5 6 8 10 8 7 6 4 3 4 6 7 9 9 8 7 9 11 12 7 8 12 6 5 4 5 4 9 7 9 7 6 8 9 9 12
14 13 13 11 12 9 9 4 7 7 9 8 6 4 4 4 6 5 6 9 9 9 9 8 9 10 9 8 6 5 4 7 5 4 4 6 6 7 6 6 6 10 9
13 12 12 11 11 9 8 5 4 7 7 7 4 4 3 4 5 7 7 8 7 7 9 10 10 11 8 9 9 6 3 3 6 5 5 4 4 4 6 4 5 6 8
13 12 12 11 11 9 7 6 6 7 8 7 5 3 4 4 5 9 8 6 6 6 7 6 4 2 2 2 4 4 5 5 4 5 5 5 6 3 4 4 5 5 6
Wind_Direction
347 347 357 353 336 297 223 187 189 181 179 181 185 184 187 181 172 173 165 157 157 154 149 148 143 145 149 144 137 135 135 135 138 138 138 141 144 146 149 156 175 176 147
348 351 348 356 343 322 259 196 190 187 188 186 187 191 188 191 180 183 178 167 166 164 154 152 149 149 151 153 150 150 148 149 140 135 135 139 147 155 157 177 217 132 153
355 358 356 353 351 344 300 208 188 194 200 194 192 191 194 192 187 186 183 176 173 171 161 159 155 150 157 156 155 156 155 144 142 145 162 167 158 165 168 200 233 153 175
354 5 2 355 354 357 347 235 199 197 203 203 196 198 195 195 193 189 186 178 178 174 170 162 160 163 163 156 156 159 157 146 148 160 185 175 157 170 188 197 169 126 120
353 2 10 1 1 2 7 352 238 208 207 208 205 204 201 199 195 193 186 186 185 183 176 168 167 165 166 161 162 159 161 153 160 189 209 189 140 169 168 155 142 135 125
348 356 11 3 1 1 4 3 8 263 232 220 213 212 208 203 200 199 190 186 189 186 183 179 166 164 170 170 167 160 166 164 173 207 204 113 140 151 145 140 128 117 108
344 354 359 5 360 355 357 2 360 4 310 241 231 218 218 212 209 203 194 189 186 186 189 173 166 162 166 164 164 167 171 171 197 210 190 153 141 151 135 126 125 122 117
335 350 349 352 1 349 349 351 354 358 3 353 278 240 226 218 212 207 203 194 189 184 187 176 167 166 167 167 166 169 171 193 220 212 131 127 136 147 135 133 131 128 136
340 342 347 342 350 347 344 340 346 344 349 351 343 342 291 233 225 216 203 200 194 186 186 181 174 170 168 167 171 166 177 214 229 175 128 132 156 145 141 143 141 144 144
337 335 342 335 340 344 336 327 336 330 339 334 330 348 340 307 247 239 223 208 200 194 185 178 174 170 169 168 168 166 174 224 239 153 129 143 167 151 152 151 154 154 153
330 334 330 335 332 334 328 326 327 326 328 312 298 302 309 252 242 231 219 221 215 197 190 180 170 167 164 163 156 166 172 213 230 173 151 151 170 162 162 161 163 167 162
331 329 326 328 326 324 320 328 316 312 314 288 319 301 261 298 262 273 275 208 219 195 196 184 176 161 168 179 175 164 198 207 220 212 147 148 169 179 171 175 176 175 179
320 322 325 324 320 315 315 318 308 305 294 281 262 296 301 277 277 242 260 174 210 195 193 181 171 177 189 194 181 191 204 204 205 177 141 146 170 188 183 187 189 189 190
314 314 323 320 317 310 306 301 299 290 288 288 277 265 300 280 194 287 227 198 167 186 195 189 179 184 187 201 189 190 204 206 209 204 154 155 183 198 189 194 199 200 198
311 312 310 318 312 309 303 293 291 286 277 276 276 264 207 301 290 259 191 163 121 177 139 89 21 243 191 201 185 182 206 201 215 200 151 168 187 212 209 206 205 201 203
310 308 310 309 311 304 300 294 286 277 268 274 286 282 286 254 279 307 272 189 163 184 176 184 173 186 235 208 188 192 207 202 207 203 194 180 190 206 228 228 220 207 206
307 308 305 309 308 308 299 292 284 263 252 244 261 271 245 275 261 248 252 260 183 180 179 188 182 187 173 231 228 188 193 213 220 220 224 184 186 120 243 253 253 232 222
308 307 308 307 310 308 305 297 284 272 232 237 227 274 250 233 264 281 259 240 217 192 188 181 190 203 202 189 190 215 194 214 226 212 208 219 213 166 84 340 243 243 237
311 307 306 306 304 301 311 304 291 275 247 225 239 200 257 265 278 278 270 255 230 202 193 185 187 198 188 183 158 97 75 59 44 55 60 59 54 48 38 32 41 29 166
308 306 304 308 307 302 310 311 294 258 245 228 220 204 241 218 253 244 242 255 247 207 177 186 187 186 197 173 90 86 77 63 59 70 72 69 58 52 36 35 35 23 70
309 307 314 312 309 306 313 327 322 324 252 215 216 221 231 246 228 253 244 261 260 228 201 179 194 188 191 126 101 68 57 59 63 43 75 83 76 70 53 38 40 42 34
312 311 316 313 308 306 311 321 301 306 299 305 259 242 240 227 265 280 271 242 251 244 217 189 194 183 187 175 133 139 137 123 56 33 43 83 58 65 86 56 61 54 45
314 318 317 317 313 307 317 313 310 303 250 247 232 220 218 48 318 314 307 305 260 240 234 215 203 208 195 188 159 144 160 159 115 31 31 42 73 68 49 71 60 63 71
316 317 320 321 316 317 317 325 328 309 299 316 330 11 39 31 359 349 317 302 291 292 222 225 215 208 196 190 181 187 78 133 147 145 53 44 49 67 50 70 76 56 57
320 322 325 324 320 319 317 353 344 317 307 307 291 288 37 6 10 357 356 327 323 309 284 224 193 203 193 188 195 177 109 98 115 143 141 149 67 30 70 37 75 90 74
323 328 331 329 325 327 329 9 6 324 315 311 314 347 22 0 3 12 352 5 360 13 9 13 36 55 142 192 160 162 161 168 172 144 124 137 116 59 50 35 56 70 72